Asheville, NC

9:58 AM EDT on October 18, 2019 (GMT -0400)
Asheville Regional

Weather History for KAVL - May, 2019

Change the Weather History Date:

Monday, May 13, 2019

  Actual Average Record
Temperature  
Mean Temperature 60 °F 62 °F  
Max Temperature 68 °F 74 °F 90 °F (1933)
Min Temperature 52 °F 51 °F 31 °F (1895)
Degree Days  
Heating Degree Days 5 4  
Month to date heating degree days 6 64  
Since 1 July heating degree days 3533 4136  
Cooling Degree Days 0 1  
Month to date cooling degree days 35 12  
Year to date cooling degree days 52 20  
Growing Degree Days 11 (Base 50)    
Moisture  
Dew Point 48 °F    
Average Humidity 65    
Maximum Humidity 90    
Minimum Humidity 40    
Precipitation  
Precipitation T in 0.12 in 1.60 in (1869)
Month to date precipitation 3.21 1.47  
Year to date precipitation 27.00 16.06  
Snow  
Snow 0.00 in 0.00 in T in (1993)
Month to date snowfall 0.0 0.0  
Since 1 July snowfall 11.4 9.9  
Snow Depth 0.00 in    
Sea Level Pressure  
Sea Level Pressure 29.80 in    
Wind  
Wind Speed 12 mph (NNW)    
Max Wind Speed 25 mph    
Max Gust Speed 32 mph    
Visibility 10 miles    
Events      
T = Trace of Precipitation, MM = Missing Value Source: NWS Daily Summary

Daily Weather History Graph

Daily Weather History Graph

Search for Another Location

Airport or City:

Astronomy

May. 13, 2019 Rise Set
Actual Time 6:27 AM EDT 8:26 PM EDT
Civil Twilight 5:59 AM EDT 8:54 PM EDT
Nautical Twilight 5:25 AM EDT 9:28 PM EDT
Astronomical Twilight 4:48 AM EDT 10:05 PM EDT
Moon 2:52 PM EDT (5/13) 3:28 AM EDT (5/13)
Length of Visible Light 14h 54m
Length of Day
13h 58m
Waxing Gibbous, 68% of the Moon is Illuminated
May 13
Waxing Gibbous
May 18
Full
May 26
Last Quarter
Jun 3
New
Jun 10
First Quarter

Hourly Weather History & Observations

Time (EDT) Temp. Dew Point Humidity Pressure Visibility Wind Dir Wind Speed Gust Speed Precip Events Conditions
12:29 AM 62.1 °F 59.0 °F 90% 29.79 in 10.0 mi NNW 5.8 mph - N/A   Scattered Clouds
12:54 AM 62.1 °F 57.9 °F 86% 29.73 in 10.0 mi North 4.6 mph - N/A   Scattered Clouds
1:54 AM 61.0 °F 57.9 °F 90% 29.73 in 10.0 mi Calm Calm - N/A   Overcast
2:16 AM 62.1 °F 57.0 °F 84% 29.79 in 10.0 mi North 3.5 mph - N/A   Overcast
2:26 AM 61.0 °F 57.0 °F 87% 29.79 in 10.0 mi NNW 4.6 mph - N/A   Overcast
2:54 AM 61.0 °F 57.0 °F 87% 29.72 in 10.0 mi NNW 11.5 mph - N/A   Overcast
3:54 AM 60.1 °F 55.0 °F 83% 29.72 in 10.0 mi NNW 11.5 mph - N/A   Overcast
4:54 AM 57.9 °F 52.0 °F 81% 29.72 in 10.0 mi North 9.2 mph - 0.00 in   Overcast
5:54 AM 57.0 °F 52.0 °F 83% 29.73 in 10.0 mi North 9.2 mph - N/A   Mostly Cloudy
6:54 AM 55.9 °F 51.1 °F 84% 29.77 in 10.0 mi NNW 10.4 mph - N/A   Partly Cloudy
7:54 AM 57.9 °F 52.0 °F 81% 29.78 in 10.0 mi NNW 9.2 mph - N/A   Clear
8:54 AM 59.0 °F 50.0 °F 72% 29.79 in 10.0 mi North 11.5 mph - N/A   Partly Cloudy
9:54 AM 61.0 °F 48.9 °F 64% 29.81 in 10.0 mi North 13.8 mph 23.0 mph N/A   Partly Cloudy
10:54 AM 63.0 °F 45.0 °F 52% 29.81 in 10.0 mi North 17.3 mph 23.0 mph N/A   Clear
11:54 AM 63.0 °F 43.0 °F 48% 29.81 in 10.0 mi NNW 12.7 mph 23.0 mph N/A   Clear
12:54 PM 64.9 °F 43.0 °F 45% 29.79 in 10.0 mi North 15.0 mph 23.0 mph N/A   Partly Cloudy
1:54 PM 66.0 °F 43.0 °F 43% 29.79 in 10.0 mi North 18.4 mph 24.2 mph N/A   Partly Cloudy
2:54 PM 66.9 °F 41.0 °F 39% 29.79 in 10.0 mi North 17.3 mph 27.6 mph N/A   Clear
3:54 PM 66.0 °F 43.0 °F 43% 29.78 in 10.0 mi NNW 21.9 mph 32.2 mph N/A   Clear
4:54 PM 64.9 °F 42.1 °F 43% 29.79 in 10.0 mi North 15.0 mph 25.3 mph N/A   Clear
5:54 PM 64.0 °F 42.1 °F 45% 29.82 in 10.0 mi North 16.1 mph 23.0 mph N/A   Clear
6:54 PM 63.0 °F 39.9 °F 43% 29.84 in 10.0 mi North 12.7 mph 24.2 mph N/A   Clear
7:54 PM 60.1 °F 42.1 °F 51% 29.86 in 10.0 mi NNW 13.8 mph 21.9 mph N/A   Clear
8:54 PM 55.9 °F 43.0 °F 62% 29.89 in 10.0 mi NNW 9.2 mph - N/A   Clear
9:54 PM 55.0 °F 43.0 °F 64% 29.91 in 10.0 mi NNW 9.2 mph 19.6 mph N/A   Clear
10:54 PM 54.0 °F 41.0 °F 62% 29.93 in 10.0 mi North 9.2 mph - N/A   Mostly Cloudy
11:54 PM 53.1 °F 39.9 °F 61% 29.93 in 10.0 mi North 9.2 mph - N/A   Mostly Cloudy